TimeEDT,TemperatureF,Dew PointF,Humidity,Sea Level PressureIn,VisibilityMPH,Wind Direction,Wind SpeedMPH,Gust SpeedMPH,PrecipitationIn,Events,Conditions,WindDirDegrees,DateUTC
12:51 AM,39.0,32.0,76,30.34,10.0,SE,5.8,-,N/A,,Partly Cloudy,130,2013-03-10 05:51:00
1:51 AM,37.9,32.0,79,30.34,10.0,East,3.5,-,N/A,,Partly Cloudy,100,2013-03-10 06:51:00
3:51 AM,36.0,32.0,86,30.33,10.0,ENE,3.5,-,N/A,,Partly Cloudy,60,2013-03-10 07:51:00
4:51 AM,36.0,32.0,86,30.35,10.0,ENE,4.6,-,N/A,,Partly Cloudy,60,2013-03-10 08:51:00
5:51 AM,35.1,32.0,89,30.36,10.0,NE,4.6,-,N/A,,Partly Cloudy,40,2013-03-10 09:51:00
6:51 AM,35.1,30.9,85,30.37,10.0,ENE,4.6,-,N/A,,Scattered Clouds,70,2013-03-10 10:51:00
8:51 AM,37.0,30.9,79,30.39,10.0,ENE,5.8,-,N/A,,Scattered Clouds,60,2013-03-10 12:51:00
9:51 AM,37.9,30.9,76,30.39,10.0,ENE,6.9,-,N/A,,Scattered Clouds,60,2013-03-10 13:51:00
10:51 AM,41.0,32.0,70,30.40,10.0,NE,5.8,-,N/A,,Scattered Clouds,40,2013-03-10 14:51:00
11:51 AM,42.1,32.0,67,30.38,10.0,NE,8.1,-,N/A,,Scattered Clouds,50,2013-03-10 15:51:00
12:51 PM,43.0,32.0,65,30.36,10.0,NE,9.2,-,N/A,,Scattered Clouds,50,2013-03-10 16:51:00
1:51 PM,44.1,33.1,65,30.35,10.0,NE,5.8,-,N/A,,Scattered Clouds,50,2013-03-10 17:51:00
2:51 PM,46.0,33.1,61,30.34,10.0,Variable,5.8,-,N/A,,Mostly Cloudy,0,2013-03-10 18:51:00
3:51 PM,44.1,33.1,65,30.34,10.0,South,10.4,-,N/A,,Mostly Cloudy,180,2013-03-10 19:51:00
4:51 PM,44.1,32.0,63,30.32,10.0,SSE,8.1,-,N/A,,Scattered Clouds,160,2013-03-10 20:51:00
5:51 PM,43.0,32.0,65,30.32,10.0,SE,9.2,-,N/A,,Mostly Cloudy,140,2013-03-10 21:51:00
6:51 PM,41.0,30.9,67,30.33,10.0,SSE,8.1,-,N/A,,Scattered Clouds,160,2013-03-10 22:51:00
7:51 PM,39.9,32.0,73,30.34,10.0,SSE,6.9,-,N/A,,Mostly Cloudy,160,2013-03-10 23:51:00
8:51 PM,39.2,32.0,75,30.34,10.0,SE,8.1,-,N/A,,Mostly Cloudy,140,2013-03-11 00:51:00
9:51 PM,39.0,33.1,79,30.33,10.0,SSE,8.1,-,N/A,,Overcast,160,2013-03-11 01:51:00
10:51 PM,39.0,33.1,79,30.32,10.0,South,9.2,-,N/A,,Mostly Cloudy,180,2013-03-11 02:51:00
11:51 PM,39.9,33.1,77,30.33,10.0,SSE,8.1,-,N/A,,Overcast,160,2013-03-11 03:51:00
12:51 AM,39.9,34.0,79,30.32,10.0,South,8.1,-,N/A,,Mostly Cloudy,180,2013-03-11 04:51:00